Flight Track Log - Related Links

Times and Time Zones

All times are in EDT time to prevent confusion due to time zone crossing. See the N2148E flight status page for this flight to view local times or setup timezone preferences in your user account.

Time Position Orientation Groundspeed Altitude Reporting Facility
EDT Latitude Longitude Course Direction KTS MPH feet Rate Location/Type
Wed 09:26:39 PM 26.2253 -80.7381 North 103 119 2,100  Level Miami Center
Wed 09:27:39 PM 26.2544 -80.7344 North 103 119 2,100  Level Miami Center
Wed 09:28:39 PM 26.2839 -80.7331 358° North 103 119 2,100  Level Miami Center
Wed 09:29:39 PM 26.3131 -80.7342 North 103 119 2,100  Level Miami Center
Wed 09:30:39 PM 26.3425 -80.7306 North 103 119 2,100 200 Level Miami Center
Wed 09:31:39 PM 26.3675 -80.7267 North 103 119 2,500 200 Climbing Miami Center
Wed 09:32:39 PM 26.3947 -80.7228 North 98 113 2,500 50 Level Miami Center
Wed 09:33:39 PM 26.4200 -80.7192 11° North 98 113 2,600  Climbing Miami Center
Wed 09:34:39 PM 26.4472 -80.7131 12° North 93 107 2,500  Descending Miami Center
Wed 09:35:39 PM 26.4725 -80.7069 North 86 99 2,600  Climbing Miami Center
Wed 09:36:39 PM 26.4956 -80.7053 North 86 99 2,500 -50 Descending Miami Center
Wed 09:37:39 PM 26.5247 -80.7017 North 86 99 2,500  Level Miami Center
Wed 09:38:39 PM 26.5478 -80.7000 North 86 99 2,500  Level Miami Center
Wed 09:39:39 PM 26.5772 -80.6986 North 91 105 2,500  Level Miami Center
Wed 09:40:39 PM 26.6022 -80.6950 North 91 105 2,500  Level Miami Center
Wed 09:41:39 PM 26.6294 -80.6933 North 89 102 2,500  Level Miami Center
Wed 09:42:39 PM 26.6525 -80.6919 North 84 97 2,500 -500 Level Miami Center
Wed 09:43:39 PM 26.6817 -80.6906 12° North 89 102 1,500  Descending Miami Center
Wed 09:44:39 PM 26.7069 -80.6844 North 89 102 2,500 500 Climbing Miami Center
Wed 09:45:39 PM 26.7342 -80.6806 17° North 89 102 2,500  Level Miami Center
Wed 09:46:39 PM 26.7594 -80.6719 12° North 89 102 2,500  Level Miami Center
Wed 09:47:39 PM 26.7847 -80.6658 15° North 89 102 2,500  Level Miami Center
Wed 09:48:39 PM 26.8119 -80.6575 14° North 94 108 2,500  Level Miami Center
Wed 09:55:15 PM 26.9825 -80.6094 North 97 112 2,500  Level Miami Center
Wed 09:56:15 PM 27.0117 -80.6081 North 98 113 2,500  Level Miami Center
Wed 09:57:24 PM 27.0369 -80.6067 359° North 114 131 2,500  Level Miami Center
Wed 09:58:16 PM 27.0619 -80.6072 358° North 108 124 2,500  Level Miami Center
Wed 09:59:16 PM 27.0889 -80.6083 North 100 115 2,500  Level Miami Center
Wed 10:00:17 PM 27.1183 -80.6044 28° Northeast 100 115 2,500  Level Miami Center
Wed 10:01:18 PM 27.1439 -80.5889 31° Northeast 100 115 2,500  Level Miami Center
Wed 10:02:16 PM 27.1672 -80.5733 23° Northeast 94 108 2,500  Level Miami Center
Wed 10:03:17 PM 27.1903 -80.5625 16° North 94 108 2,500  Level Miami Center
Wed 10:04:16 PM 27.2178 -80.5539 North 94 108 2,500  Level Miami Center
Wed 10:05:16 PM 27.2492 -80.5503 North 89 102 2,500  Level Miami Center
Wed 10:06:16 PM 27.2764 -80.5489 358° North 89 102 2,500 -149 Level Miami Center
Wed 10:07:17 PM 27.3033 -80.5497 354° North 89 102 2,200 -246 Descending Miami Center
Wed 10:08:18 PM 27.3306 -80.5531 North 96 110 2,000 -50 Descending Miami Center
Wed 10:09:16 PM 27.3597 -80.5492 North 96 110 2,100 51 Climbing Miami Center
Wed 10:10:16 PM 27.3892 -80.5478 North 101 116 2,100  Level Miami Center
Wed 10:11:17 PM 27.4183 -80.5464 North 101 116 2,100  Level Miami Center

Login

Don't have an account? Register now (free) for customized features, flight alerts, and more!